Home   Weather   Riyadh   Past weeks
Flag for Saudi Arabia

Past Weather in Riyadh, Saudi Arabia — Yesterday and Last 2 Weeks

Now
75 °F

Duststorm.


Feels Like: 76 °F
Forecast: 80 / 59 °F
Wind: 7 mph from South

Location: King Khaled International Airport

Current Time: Jan 23, 2019 at 12:49:55 pm

Latest Report: Jan 23, 2019 at 12:00 pm


Visibility: 1 mi

Pressure: 30.04 "Hg (28.07 "Hg at 590m altitude)

Humidity: 18%

Dew Point: 28 °F

Location of RiyadhLocation

Past Weather in Riyadh — Graph

°F

Riyadh Temperature Yesterday

Maximum temperature yesterday: 77 °F (at 2:00 pm)
Minimum temperature yesterday: 46 °F (at 7:00 am)
Average temperature yesterday: 61 °F

High & Low Weather Summary for the Past Weeks

 TemperatureHumidityPressure
High82 °F (Jan 16, 2:00 pm)72% (Jan 15, 6:17 am)30.33 "Hg (Jan 15, 6:17 am)
Low41 °F (Jan 20, 5:00 am)15% (Jan 9, 3:00 pm)29.92 "Hg (Jan 16, 2:00 pm)
Average60 °F35%30.12 "Hg
* Reported Jan 8 11:00 am — Jan 23 11:00 am, Riyadh. Weather by CustomWeather, © 2019

Note: Actual official high and low records may vary slightly from our data, if they occured in-between our weather recording intervals... More about our weather records

Advertising

Riyadh Weather History for the Previous 24 Hours

Scroll right to see more
 ConditionsComfort  
Time TempWeatherWind HumidityBarometerVisibility
11:00 am
Wed, Jan 23
72 °FDuststorm.8 mph20%30.07 "Hg1 mi
10:00 am64 °FDuststorm.3 mph26%30.09 "Hg1 mi
9:00 am59 °FDuststorm.2 mph29%30.09 "Hg1 mi
8:00 am52 °FHaze.No wind44%30.07 "Hg1 mi
7:00 am52 °FPassing clouds.2 mph38%30.07 "Hg1 mi
6:00 am50 °FDuststorm.2 mph40%30.04 "Hg2 mi
5:00 am52 °FDuststorm.3 mph38%30.01 "Hg2 mi
4:00 am54 °FDuststorm.2 mph35%30.04 "Hg2 mi
3:00 am55 °FDuststorm.3 mph33%30.04 "Hg2 mi
2:00 am55 °FDuststorm.3 mph36%30.04 "Hg2 mi
1:00 am57 °FDuststorm.3 mph36%30.04 "Hg2 mi
12:00 am59 °FClear.3 mph34%30.07 "Hg4 mi
11:00 pm
Tue, Jan 22
59 °FClear.No wind34%30.07 "Hg4 mi
10:00 pm61 °FDuststorm.3 mph31%30.07 "Hg3 mi
9:00 pm63 °FDuststorm.6 mph30%30.07 "Hg3 mi
8:00 pm63 °FDuststorm.3 mph27%30.07 "Hg2 mi
7:00 pm66 °FDuststorm.3 mph24%30.04 "Hg2 mi
6:00 pm68 °FDuststorm.3 mph26%30.04 "Hg2 mi
5:00 pm72 °FDuststorm.3 mph25%30.04 "Hg2 mi
4:00 pm75 °FDuststorm.3 mph19%30.04 "Hg2 mi
3:00 pm75 °FDuststorm.3 mph18%30.01 "Hg2 mi
2:00 pm77 °FDuststorm.2 mph15%30.04 "Hg2 mi
1:00 pm75 °FDuststorm.2 mph16%30.07 "Hg2 mi
12:00 pm72 °FDuststorm.5 mph19%30.09 "Hg2 mi
Weather by CustomWeather, © 2019

See weather overview